Flight Information

DEPARTURE
SEATTLE, WA
Elevation:
21
Runways:
14R/32L - 10007x200 - ASPH-G
14L/32R - 3709x100 - ASPH-F
Active PE Departure:
32L - 32R
Current PE ATIS:
X
Altimeter:
30.02
Remarks:
SIMULTANEOUS APPROACHES BETWEEN BOEING FIELD AND SEATTLE INTERNATIONAL. EXPECT AIRCRAFT ABOVE YOU ON FINAL.
ATIS:
127.75 206-767-4113
Clearance Delivery:
132.4
Ground:
121.9
Tower:
BOEING TOWER 118.3(VFR FROM THE EAST) 120.6(ALL IFR)
DESTINATION
,
Elevation:
TPA:
1000 (est.)


6668.8 NM65° True-20° Var44° HDG

Flight Plan:
(click to file on line)

1. Type
2. Aircraft Identification
3. Aircraft Type / Special Equipment
4. True Airspeed
kts
5. Departure Airport
(ICAO code)
6. Arriving Airport
(ICAO code)
7. Cruising Altitude
ft
8. Alternate Airport
(ICAO code)
9. Route of Flight
10. Remarks


00:00:00 Departure ATIS: Destination ATIS:

Clearance Limit:
Route:
Altitude: Expect in minutes
Frequency:
Transponder: (7500 Hijack / 7600 Lost Comms / 7700 Emergency)


KBFI 290153Z 06006KT 7SM -RA BKN035 12/10 A3002 RMK AO2 RAB39 SLP165 P0003 T01170100
Time: 2023-09-29T01:53:00Z
1695955287
Winds: 60 @ 6 kts
Visibility: 7.0 sm
Clouds (AGL): BKN 3500
Temperature: 11.7 C
Dew Point: 10.0 C
Pressure: 30.02067 in Hgbr


Notes:

Data extracted from FAA Digital Chart Supplement. Effective: 0901Z Thursday, 27 JAN 2022 to 0900z Thursday, 24 MAR 2022
Current ATIS data is provided courtisy of PilotEdge.